Starlink 5652

operational
NORAD ID: 55334 Int'l Des: 2023-013 Owner: SPXS Country: US Constellation: starlink
LEOCIRCULAR

About Starlink 5652

Description loading...

Live Position

Loading 3D Globe...

Upcoming Passes

Altitude History

Altitude vs Time

uPlot chart will show altitude changes over time

Two-Line Element Set

1 55334U 23013D 25350.18320569 -.00000653 00000-0 -33234-4 0 9993
2 55334 43.0045 34.3490 0001307 266.1385 93.9308 15.02540244159142
Epoch: Dec 16, 2025 • Age: 18 hours

Current Status

Altitude 562.9 km
Velocity 7.59 km/s
Sub-Earth Point 42.29°N, 45.88°E
Launch Date Jan 26, 2023
Age 2.8 years
Type internet

Technical Details

Classification Payload
Mass 305.00 kg
Dry Mass 290.00 kg
Total Mass 305.00 kg
Length 0.20 m
Diameter 2.80 m
Span 9.00 m
Shape Box + pan
Manufacturer SPXS
Bus Type Starlink
Phase Status In Orbit
Owner/State SPXS/US

Large Constellations

Loading constellations...